This is the latest recevied weather packets stored in our database for station/object KD9CCP. If no packets are shown the sender has not sent any weather packets the latest 10 day(s).
| Time | Temp. | Humidity | Pressure | Rain* | Wind** | Luminosity | Snow |
|---|---|---|---|---|---|---|---|
| 1777313102 | 14.44° C | 76% | 1006.4 hPa | 0 mm | - | 29 W/m² | - |
| 1777312798 | 14.44° C | 75% | 1006.4 hPa | 0 mm | - | 41 W/m² | - |
| 1777312495 | 14.44° C | 74% | 1006.8 hPa | 0 mm | - | 65 W/m² | - |
| 1777312192 | 14.44° C | 74% | 1007.3 hPa | 0 mm | - | 65 W/m² | - |
| 1777311890 | 14.44° C | 74% | 1007.4 hPa | 0 mm | - | 112 W/m² | - |
| 1777311586 | 14.44° C | 74% | 1007.5 hPa | 0 mm | - | 88 W/m² | - |
| 1777311284 | 14.44° C | 75% | 1007.6 hPa | 0 mm | - | 83 W/m² | - |
| 1777310982 | 13.89° C | 74% | 1007.8 hPa | 0 mm | - | 81 W/m² | - |
| 1777310679 | 13.89° C | 74% | 1007.9 hPa | 0 mm | - | 98 W/m² | - |
| 1777310376 | 13.89° C | 75% | 1008.1 hPa | 0 mm | - | 127 W/m² | - |
| 1777310073 | 13.89° C | 75% | 1008.3 hPa | 0 mm | - | 178 W/m² | - |
| 1777309772 | 13.89° C | 76% | 1008.3 hPa | 0 mm | - | 145 W/m² | - |
| 1777309469 | 13.89° C | 75% | 1008.6 hPa | 0 mm | - | 97 W/m² | - |
| 1777309165 | 13.89° C | 75% | 1008.6 hPa | 0 mm | - | 197 W/m² | - |
| 1777308864 | 13.33° C | 76% | 1009 hPa | 0 mm | - | 198 W/m² | - |
| 1777308559 | 13.33° C | 77% | 1009 hPa | 0 mm | - | 115 W/m² | - |
| 1777308255 | 13.33° C | 77% | 1008.9 hPa | 0 mm | - | 81 W/m² | - |
| 1777307950 | 13.33° C | 76% | 1009 hPa | 0 mm | - | 84 W/m² | - |
| 1777307648 | 12.78° C | 77% | 1009.3 hPa | 0 mm | - | 95 W/m² | - |
| 1777307345 | 12.78° C | 78% | 1009.3 hPa | 0 mm | - | 65 W/m² | - |
| 1777307042 | 12.78° C | 77% | 1009.7 hPa | 0 mm | - | 67 W/m² | - |
| 1777306740 | 12.78° C | 77% | 1009.9 hPa | 0 mm | - | 77 W/m² | - |
| 1777306437 | 12.78° C | 77% | 1009.9 hPa | 0 mm | - | 57 W/m² | - |
| 1777306131 | 12.78° C | 78% | 1009.9 hPa | 0 mm | - | 49 W/m² | - |
| 1777305827 | 12.78° C | 77% | 1009.9 hPa | 0 mm | - | 59 W/m² | - |
* Rain latest hour (hover to see other rain measurements)
** Current wind speed in m/s (hover to see current wind gust speed)